| time (UTC) | temp F | wind direction | speed MPH | gust MPH | rain 1hr in | rain 24hr in | rain mn in | humidity % | barometer mb |
| 20260509225243 | 60 | 175 | 0.0 | 0.0 | 0.00 | 0.00 | 0.00 | 81 | 701.0 |
| 20260509224243 | 60 | 175 | 0.0 | 0.0 | 0.00 | 0.00 | 0.00 | 80 | 467.2 |
| 20260509223237 | 60 | 175 | 0.0 | 0.0 | 0.00 | 0.00 | 0.00 | 79 | 468.0 |
| 20260509222238 | 60 | 175 | 0.0 | 0.0 | 0.00 | 0.00 | 0.00 | 79 | 478.7 |
| 20260509221726 | 61 | 175 | 0.0 | 0.0 | 0.00 | 0.00 | 0.00 | 78 | 476.9 |
| 20260509220233 | 61 | 175 | 0.0 | 0.0 | 0.00 | 0.00 | 0.00 | 76 | 464.1 |
| 20260509215234 | 62 | 175 | 0.0 | 0.0 | 0.00 | 0.00 | 0.00 | 75 | 484.5 |
| 20260509214231 | 62 | 175 | 0.0 | 0.0 | 0.00 | 0.00 | 0.00 | 75 | 468.1 |
| 20260509213646 | 62 | 175 | 0.0 | 0.0 | 0.00 | 0.00 | 0.00 | 74 | 468.0 |
| 20260509213427 | 62 | 175 | 0.0 | 0.0 | 0.00 | 0.00 | 0.00 | 74 | 468.0 |
| 20260509211231 | 62 | 175 | 0.0 | 0.0 | 0.00 | 0.00 | 0.00 | 73 | 468.0 |
| 20260509210231 | 62 | 175 | 0.0 | 0.0 | 0.00 | 0.00 | 0.00 | 73 | 468.0 |
| 20260509205231 | 63 | 175 | 0.0 | 2.0 | 0.00 | 0.00 | 0.00 | 72 | 467.9 |
| 20260509204224 | 63 | 175 | 0.0 | 0.0 | 0.00 | 0.00 | 0.00 | 71 | 466.5 |
| 20260509203225 | 64 | 175 | 0.0 | 0.0 | 0.00 | 0.00 | 0.00 | 70 | 468.0 |
| 20260509202224 | 64 | 175 | 0.0 | 0.0 | 0.00 | 0.00 | 0.00 | 69 | 468.3 |
| 20260509201218 | 64 | 175 | 0.0 | 0.0 | 0.00 | 0.00 | 0.00 | 69 | 468.0 |
| 20260509200215 | 65 | 175 | 0.0 | 0.0 | 0.00 | 0.00 | 0.00 | 68 | 758.5 |
| 20260509195215 | 65 | 175 | 0.0 | 0.0 | 0.00 | 0.00 | 0.00 | 68 | 464.4 |
| 20260509194217 | 65 | 175 | 0.0 | 2.0 | 0.00 | 0.00 | 0.00 | 69 | 468.0 |
| 20260509193212 | 65 | 192 | 0.0 | 0.0 | 0.00 | 0.00 | 0.00 | 68 | 468.1 |
| 20260509192214 | 66 | 192 | 0.0 | 0.0 | 0.00 | 0.00 | 0.00 | 66 | 498.6 |
| 20260509191614 | 66 | 192 | 0.0 | 0.0 | 0.00 | 0.00 | 0.00 | 66 | 484.4 |
| 20260509191355 | 66 | 192 | 0.0 | 0.0 | 0.00 | 0.00 | 0.00 | 66 | 468.0 |
| 20260509185206 | 67 | 192 | 0.0 | 0.0 | 0.00 | 0.00 | 0.00 | 65 | 445.3 |
| 20260509184205 | 67 | 192 | 0.0 | 0.0 | 0.00 | 0.00 | 0.00 | 62 | 467.2 |
| 20260509183204 | 67 | 192 | 0.0 | 0.0 | 0.00 | 0.00 | 0.00 | 64 | 498.6 |
| 20260509182205 | 67 | 192 | 0.0 | 0.0 | 0.00 | 0.00 | 0.00 | 64 | 468.7 |
| 20260509181204 | 68 | 192 | 0.0 | 0.0 | 0.00 | 0.00 | 0.00 | 64 | 466.5 |
| 20260509180205 | 69 | 192 | 0.0 | 0.0 | 0.00 | 0.00 | 0.00 | 61 | 465.9 |
| 20260509175203 | 69 | 192 | 0.0 | 0.0 | 0.00 | 0.00 | 0.00 | 61 | 499.1 |
| 20260509174203 | 70 | 192 | 0.0 | 4.0 | 0.00 | 0.00 | 0.00 | 60 | 496.3 |
| 20260509173204 | 70 | 192 | 0.0 | 4.0 | 0.00 | 0.00 | 0.00 | 60 | 476.9 |
| 20260509172201 | 70 | 207 | 2.0 | 6.0 | 0.00 | 0.00 | 0.00 | 61 | 468.0 |
| 20260509171204 | 71 | 197 | 2.0 | 6.0 | 0.00 | 0.00 | 0.00 | 62 | 466.7 |
| 20260509170200 | 71 | 211 | 1.0 | 5.0 | 0.00 | 0.00 | 0.00 | 64 | 468.0 |
| 20260509165158 | 71 | 205 | 2.0 | 6.0 | 0.00 | 0.00 | 0.00 | 64 | 467.6 |
| 20260509164158 | 72 | 201 | 2.0 | 7.0 | 0.00 | 0.00 | 0.00 | 63 | 468.3 |
| 20260509163200 | 72 | 207 | 1.0 | 6.0 | 0.00 | 0.00 | 0.00 | 64 | 482.1 |
| 20260509162158 | 73 | 208 | 2.0 | 7.0 | 0.00 | 0.00 | 0.00 | 63 | 467.2 |
| 20260509161150 | 73 | 194 | 5.0 | 10.0 | 0.00 | 0.00 | 0.00 | 62 | 482.1 |
| 20260509160150 | 73 | 192 | 1.0 | 7.0 | 0.00 | 0.00 | 0.00 | 61 | 601.0 |
| 20260509155152 | 74 | 211 | 2.0 | 8.0 | 0.00 | 0.00 | 0.00 | 59 | 468.0 |
| 20260509154152 | 74 | 240 | 1.0 | 4.0 | 0.00 | 0.00 | 0.00 | 58 | 468.0 |
| 20260509153143 | 74 | 185 | 0.0 | 4.0 | 0.00 | 0.00 | 0.00 | 61 | 515.0 |
| 20260509152625 | 73 | 223 | 1.0 | 5.0 | 0.00 | 0.00 | 0.00 | 60 | 493.5 |
| 20260509151625 | 74 | 250 | 1.0 | 5.0 | 0.00 | 0.00 | 0.00 | 57 | 467.4 |
| 20260509150141 | 74 | 219 | 1.0 | 9.0 | 0.00 | 0.00 | 0.00 | 55 | 468.0 |
| 20260509145137 | 75 | 163 | 2.0 | 8.0 | 0.00 | 0.00 | 0.00 | 54 | 468.0 |
| 20260509144131 | 75 | 194 | 2.0 | 10.0 | 0.00 | 0.00 | 0.00 | 54 | 478.5 |
| 20260509143622 | 75 | 189 | 4.0 | 9.0 | 0.00 | 0.00 | 0.00 | 53 | 473.3 |
| 20260509142131 | 76 | 238 | 3.0 | 9.0 | 0.00 | 0.00 | 0.00 | 50 | 467.3 |
| 20260509141134 | 76 | 205 | 2.0 | 9.0 | 0.00 | 0.00 | 0.00 | 49 | 468.0 |
| 20260509140130 | 76 | 265 | 3.0 | 9.0 | 0.00 | 0.00 | 0.00 | 49 | 1199.0 |
| 20260509135134 | 76 | 259 | 4.0 | 12.0 | 0.00 | 0.00 | 0.00 | 48 | 468.2 |
| 20260509134131 | 76 | 220 | 1.0 | 5.0 | 0.00 | 0.00 | 0.00 | 48 | 468.0 |
| 20260509133131 | 76 | 175 | 1.0 | 7.0 | 0.00 | 0.00 | 0.00 | 48 | 468.0 |
| 20260509132613 | 76 | 189 | 3.0 | 7.0 | 0.00 | 0.00 | 0.00 | 48 | 488.2 |
| 20260509131126 | 75 | 236 | 2.0 | 7.0 | 0.00 | 0.00 | 0.00 | 50 | 468.0 |
| 20260509130607 | 74 | 283 | 2.0 | 7.0 | 0.00 | 0.00 | 0.00 | 51 | 468.0 |
| 20260509125126 | 75 | 310 | 3.0 | 8.0 | 0.00 | 0.00 | 0.00 | 50 | 489.0 |
| 20260509124605 | 75 | 269 | 3.0 | 9.0 | 0.00 | 0.00 | 0.00 | 50 | 467.9 |
| 20260509123118 | 75 | 250 | 2.0 | 7.0 | 0.00 | 0.00 | 0.00 | 48 | 473.9 |
| 20260509122117 | 75 | 189 | 4.0 | 13.0 | 0.00 | 0.00 | 0.00 | 49 | 463.3 |
| 20260509121117 | 75 | 165 | 2.0 | 8.0 | 0.00 | 0.00 | 0.00 | 49 | 468.1 |
| 20260509120109 | 74 | 313 | 1.0 | 6.0 | 0.00 | 0.00 | 0.00 | 50 | 449.9 |
| 20260509115107 | 74 | 255 | 0.0 | 3.0 | 0.00 | 0.00 | 0.00 | 48 | 498.6 |
| 20260509114108 | 74 | 253 | 2.0 | 6.0 | 0.00 | 0.00 | 0.00 | 51 | 490.0 |
| 20260509113106 | 74 | 261 | 3.0 | 8.0 | 0.00 | 0.00 | 0.00 | 52 | 467.2 |
| 20260509112107 | 74 | 186 | 2.0 | 8.0 | 0.00 | 0.00 | 0.00 | 43 | 468.0 |
| 20260509111107 | 74 | 198 | 3.0 | 8.0 | 0.00 | 0.00 | 0.00 | 48 | 498.3 |
| 20260509110104 | 74 | 187 | 2.0 | 7.0 | 0.00 | 0.00 | 0.00 | 51 | 467.9 |
| 20260509105536 | 74 | 238 | 2.0 | 8.0 | 0.00 | 0.00 | 0.00 | 51 | 463.5 |
| 20260509104108 | 73 | 221 | 2.0 | 7.0 | 0.00 | 0.00 | 0.00 | 56 | 466.6 |
| 20260509103104 | 73 | 225 | 2.0 | 8.0 | 0.00 | 0.00 | 0.00 | 55 | 468.0 |
| 20260509102104 | 72 | 273 | 2.0 | 10.0 | 0.00 | 0.00 | 0.00 | 57 | 468.3 |
| 20260509101101 | 72 | 221 | 2.0 | 9.0 | 0.00 | 0.00 | 0.00 | 56 | 468.0 |
| 20260509095059 | 71 | 267 | 3.0 | 9.0 | 0.00 | 0.00 | 0.00 | 60 | 467.2 |
| 20260509094057 | 72 | 193 | 3.0 | 9.0 | 0.00 | 0.00 | 0.00 | 60 | 483.8 |
| 20260509093059 | 71 | 252 | 2.0 | 8.0 | 0.00 | 0.00 | 0.00 | 61 | 470.7 |
| 20260509092100 | 71 | 220 | 2.0 | 6.0 | 0.00 | 0.00 | 0.00 | 62 | 484.4 |
| 20260509091056 | 70 | 238 | 1.0 | 5.0 | 0.00 | 0.00 | 0.00 | 65 | 426.1 |
| 20260509090058 | 70 | 231 | 1.0 | 5.0 | 0.00 | 0.00 | 0.00 | 64 | 473.2 |
| 20260509085057 | 70 | 223 | 0.0 | 5.0 | 0.00 | 0.00 | 0.00 | 67 | 478.3 |
| 20260509084056 | 70 | 209 | 1.0 | 6.0 | 0.00 | 0.00 | 0.00 | 66 | 468.0 |
| 20260509083056 | 70 | 126 | 0.0 | 4.0 | 0.00 | 0.00 | 0.00 | 67 | 468.1 |
| 20260509082057 | 69 | 92 | 0.0 | 4.0 | 0.00 | 0.00 | 0.00 | 67 | 473.2 |
| 20260509081532 | 69 | 87 | 0.0 | 4.0 | 0.00 | 0.00 | 0.00 | 67 | 467.9 |
| 20260509080446 | 69 | 0 | 0.0 | 0.0 | 0.00 | 0.00 | 0.00 | 66 | 468.1 |
| 20260509080241 | 69 | 0 | 0.0 | 1.0 | 0.00 | 0.00 | 0.00 | 66 | 468.1 |
| 20260509074050 | 69 | 87 | 0.0 | 1.0 | 0.00 | 0.00 | 0.00 | 67 | 468.0 |
| 20260509073049 | 68 | 0 | 1.0 | 3.0 | 0.00 | 0.00 | 0.00 | 68 | 468.7 |
| 20260509073020 | 67 | 0 | 0.0 | 3.0 | 0.00 | 0.00 | 0.00 | 69 | 464.8 |
| 20260509071042 | 67 | 0 | 0.0 | 1.0 | 0.00 | 0.00 | 0.00 | 70 | 469.1 |
| 20260509070040 | 67 | 90 | 0.0 | 1.0 | 0.00 | 0.00 | 0.00 | 69 | 484.4 |
| 20260509065040 | 67 | 0 | 0.0 | 0.0 | 0.00 | 0.00 | 0.00 | 69 | 467.8 |
| 20260509064516 | 65 | 0 | 0.0 | 0.0 | 0.00 | 0.00 | 0.00 | 72 | 944.3 |
| 20260509063035 | 65 | 0 | 0.0 | 0.0 | 0.00 | 0.00 | 0.00 | 72 | 440.3 |
| 20260509062951 | 64 | 0 | 0.0 | 0.0 | 0.00 | 0.00 | 0.00 | 74 | 477.6 |
| 20260509061035 | 63 | 0 | 0.0 | 0.0 | 0.00 | 0.00 | 0.00 | 75 | 908.5 |
| 20260509060032 | 62 | 0 | 0.0 | 0.0 | 0.00 | 0.00 | 0.00 | 76 | 484.4 |
| 20260509055029 | 61 | 0 | 0.0 | 0.0 | 0.00 | 0.00 | 0.00 | 79 | 468.0 |
| 20260509054508 | 59 | 0 | 0.0 | 2.0 | 0.00 | 0.00 | 0.00 | 81 | 468.0 |
| 20260509053031 | 58 | 0 | 1.0 | 5.0 | 0.00 | 0.00 | 0.00 | 81 | 468.0 |
| 20260509052029 | 58 | 92 | 1.0 | 7.0 | 0.00 | 0.00 | 0.00 | 81 | 463.3 |
| 20260509051021 | 57 | 109 | 0.0 | 4.0 | 0.00 | 0.00 | 0.00 | 83 | 468.3 |
| 20260509050020 | 57 | 109 | 0.0 | 3.0 | 0.00 | 0.00 | 0.00 | 84 | 468.1 |
| 20260509045509 | 56 | 109 | 1.0 | 4.0 | 0.00 | 0.00 | 0.00 | 84 | 466.6 |
| 20260509044011 | 56 | 109 | 0.0 | 4.0 | 0.00 | 0.00 | 0.00 | 85 | 468.0 |
| 20260509043013 | 55 | 109 | 1.0 | 4.0 | 0.00 | 0.00 | 0.00 | 86 | 467.9 |
| 20260509042013 | 55 | 109 | 0.0 | 3.0 | 0.00 | 0.00 | 0.00 | 86 | 467.2 |
| 20260509041011 | 55 | 109 | 0.0 | 0.0 | 0.00 | 0.00 | 0.00 | 87 | 468.7 |
| 20260509040014 | 55 | 109 | 0.0 | 3.0 | 0.00 | 0.00 | 0.00 | 86 | 473.2 |
| 20260509035008 | 55 | 109 | 0.0 | 0.0 | 0.00 | 0.00 | 0.00 | 87 | 468.0 |
| 20260509034009 | 56 | 109 | 1.0 | 4.0 | 0.00 | 0.00 | 0.00 | 86 | 473.2 |
| 20260509033442 | 56 | 109 | 1.0 | 4.0 | 0.00 | 0.00 | 0.00 | 86 | 468.0 |
| 20260509032006 | 56 | 110 | 0.0 | 3.0 | 0.00 | 0.00 | 0.00 | 87 | 465.6 |
| 20260509031004 | 56 | 110 | 1.0 | 4.0 | 0.00 | 0.00 | 0.00 | 87 | 468.0 |
| 20260509030450 | 56 | 111 | 2.0 | 4.0 | 0.00 | 0.00 | 0.00 | 87 | 437.9 |
| 20260509025004 | 56 | 133 | 1.0 | 5.0 | 0.00 | 0.00 | 0.00 | 88 | 447.2 |
| 20260509024003 | 56 | 138 | 0.0 | 0.0 | 0.00 | 0.00 | 0.00 | 87 | 468.0 |
| 20260509023002 | 56 | 138 | 0.0 | 0.0 | 0.00 | 0.00 | 0.00 | 88 | 468.0 |
| 20260509022459 | 57 | 138 | 0.0 | 3.0 | 0.00 | 0.00 | 0.00 | 88 | 759.3 |
| 20260509021003 | 57 | 138 | 0.0 | 3.0 | 0.00 | 0.00 | 0.00 | 88 | 528.4 |
| 20260509020003 | 57 | 138 | 0.0 | 0.0 | 0.00 | 0.00 | 0.00 | 88 | 468.4 |
| 20260509015443 | 57 | 138 | 0.0 | 0.0 | 0.00 | 0.00 | 0.00 | 88 | 468.0 |
| 20260509013956 | 57 | 138 | 0.0 | 0.0 | 0.00 | 0.00 | 0.00 | 88 | 484.4 |
| 20260509012957 | 58 | 138 | 0.0 | 0.0 | 0.00 | 0.00 | 0.00 | 88 | 468.0 |
| 20260509011957 | 58 | 138 | 0.0 | 0.0 | 0.00 | 0.00 | 0.00 | 88 | 468.0 |
| 20260509010953 | 58 | 138 | 0.0 | 0.0 | 0.00 | 0.00 | 0.00 | 88 | 468.0 |
| 20260509010425 | 57 | 138 | 0.0 | 0.0 | 0.00 | 0.00 | 0.00 | 89 | 489.9 |
| 20260509004952 | 58 | 138 | 0.0 | 0.0 | 0.00 | 0.00 | 0.00 | 89 | 498.6 |
| 20260509004432 | 58 | 138 | 0.0 | 0.0 | 0.00 | 0.00 | 0.00 | 89 | 468.1 |
| 20260509002943 | 58 | 138 | 0.0 | 0.0 | 0.00 | 0.00 | 0.00 | 89 | 468.0 |
| 20260509001944 | 58 | 138 | 0.0 | 3.0 | 0.00 | 0.00 | 0.00 | 89 | 468.0 |
| 20260509000939 | 59 | 138 | 1.0 | 3.0 | 0.00 | 0.00 | 0.00 | 89 | 467.3 |
| 20260508235937 | 59 | 143 | 0.0 | 1.0 | 0.00 | 0.00 | 0.00 | 90 | 473.5 |
| 20260508235413 | 59 | 143 | 0.0 | 0.0 | 0.00 | 0.00 | 0.00 | 90 | 473.2 |
| 20260508233935 | 59 | 143 | 0.0 | 0.0 | 0.00 | 0.00 | 0.00 | 90 | 463.5 |
| 20260508233326 | 60 | 143 | 0.0 | 0.0 | 0.00 | 0.00 | 0.00 | 89 | 468.0 |
| 20260508233122 | 60 | 143 | 0.0 | 0.0 | 0.00 | 0.00 | 0.00 | 90 | 466.5 |
| 20260508231848 | 60 | 143 | 0.0 | 0.0 | 0.00 | 0.00 | 0.00 | 89 | 468.0 |
| 20260508230409 | 60 | 143 | 0.0 | 0.0 | 0.00 | 0.00 | 0.00 | 89 | 465.1 |
| 20260508225916 | 60 | 143 | 0.0 | 0.0 | 0.00 | 0.00 | 0.00 | 88 | 468.0 |